Zurück zum Katalog

STARLINK-32751

AktivKommunikationVLEO
NORAD 62753·PAYLOAD·🇺🇸 United States

Gestartet Jan 21, 2025 von Cape Canaveral Space Force Station

Loading…

Nächste Überflüge (nächste 24 Stunden)

TLE

AktuellSource: CelesTrak SupGP

Epoche: Sep 15, 2026, 03:13 UTC

1 62753C 25014U   26258.13451389  .00013239  00000+0  47952-3 0  2587
2 62753  43.0006 164.8215 0001251 270.6434 204.2765 15.27571264    17

Verfolge STARLINK-32751 in Echtzeit mit AllMySat

Download on the App Store